sat.trackr.live / text

‹ back to catalog

STARLINK-5471

NORAD 54766 · 2022-175J

PAYLOAD ACTIVE UNKNOWN

§ Identity

Operator
Country
US
Launch date
2022-12-17
Launch site
AFETR
Launch vehicle
Mass (kg)
RCS (m²)

Purposes: comms

External: N2YO · Heavens-Above · Gunter

§ Orbital elements

Epoch: 2026-09-20T15:56:33.393696Z

Period
95.44 min
Inclination
53.1607°
Eccentricity
0.0001257
Mean motion
15.08820307 rev/d
Perigee alt
538.9 km
Apogee alt
540.7 km
Semi-major
6,917.9 km
B*
-1.7004e-5
RAAN
248.1783°
Arg perigee
76.0348°
Mean anomaly
284.0784°
Rev number
20,935

§ Raw data

STARLINK-54711 54766U 22175J   26263.66427539 -.00000558  00000+0 -17004-4 0  99912 54766  53.1607 248.1783 0001257  76.0348 284.0784 15.08820307209354

JSON: /api/v1/satellites/54766 · /tle

For live sub-satellite position, see the globe view (requires WebGL).

§ Visibility from observer

Set your observer location to see the next 7 days of passes ≥ 10°. The values pass through the URL so the page stays shareable.

No JS? Fill the form by hand. The geolocation button needs JavaScript.